Simultaneous Nadir Overpasses (SNOs) Predictions

Prediction of SNOs between GOES-17 and METOP-B Satellite Orbit:

Table of predicted SNOs for the next 14.0 days since TLE Epoch: 9/27/2019
Index Date Time (GOES-17) GOES-17 Lat,Lon METOP-B Lat,Lon Distance(km) Time Diff (sec)
1 09/29/2019 06:43:24 -0.02,-137.20 -0.21,-138.11 102.76 80
2 09/30/2019 06:20:04 -0.03,-137.20 0.91,-133.12 466.53 80
3 10/01/2019 18:38:55 0.03,-137.20 0.15,-137.66 53.01 80
4 10/04/2019 06:39:56 -0.03,-137.19 -0.03,-137.27 8.91 80
5 10/06/2019 18:38:06 0.03,-137.17 -0.03,-136.83 39.06 80
6 10/08/2019 06:54:27 -0.03,-137.16 -0.97,-141.43 486.20 80
7 10/09/2019 06:36:26 -0.04,-137.15 0.10,-136.42 82.00 80
8 10/10/2019 18:52:37 0.03,-137.13 0.92,-140.99 439.60 80
9 10/11/2019 18:34:38 0.03,-137.12 -0.21,-135.99 128.30 80




NCC Satellite Simultaneous Nadir Overpasses (SNOs) Prediction Service
